Weather History for La Junta, CO

Change the Weather History Date:

Monday, July 8, 2013

  Actual Average Record
Temperature  
Mean Temperature 86 °F 78 °F  
Max Temperature 101 °F 94 °F 107 °F (1978)
Min Temperature 70 °F 63 °F 48 °F (1952)
Degree Days  
Heating Degree Days 0 0  
Month to date heating degree days 0 0  
Since 1 June heating degree days 11 16  
Since 1 July heating degree days 0 0  
Cooling Degree Days 21 13  
Month to date cooling degree days 105 102  
Year to date cooling degree days 631 419  
Since 1 June cooling degree days 493 346  
Growing Degree Days 35 (Base 50)    
Moisture  
Dew Point 53 °F    
Average Humidity 42    
Maximum Humidity 66    
Minimum Humidity 18    
Precipitation  
Precipitation 0.00 in 0.06 in 1.09 in (2006)
Month to date precipitation 0.20 0.44  
Year to date precipitation 2.87 6.09  
Sea Level Pressure  
Sea Level Pressure 29.86 in    
Wind  
Wind Speed 9 mph (SSW)    
Max Wind Speed 32 mph    
Max Gust Speed 40 mph    
Visibility 10 miles    
Events      
T = Trace of Precipitation, MM = Missing Value Source: NWS Daily Summary

Daily Weather History Graph

Daily Weather History Graph

Search for Another Location

Airport:

Trip Planner

Search our weather history database for the weather conditions in past years. The results will help you decide how hot, cold, wet, or windy it might be!

Date:

Astronomy

Jul. 08, 2013 Rise Set
Actual Time 5:38 AM MDT 8:19 PM MDT
Civil Twilight 5:07 AM MDT 8:50 PM MDT
Nautical Twilight 4:29 AM MDT 9:28 PM MDT
Astronomical Twilight 3:45 AM MDT 10:12 PM MDT
Moon 6:08 AM MDT (7/8) 8:24 PM MDT (7/8)
Length of Visible Light 15h 42m
Length of Day
14h 40m
New Moon, 0% of the Moon is Illuminated
Jul 8
New Moon
Jul 15
First Quarter
Jul 22
Full
Jul 29
Last Quarter
Aug 6
New

Hourly Weather History & Observations

Time (MDT) Temp. Heat Index Dew Point Humidity Pressure Visibility Wind Dir Wind Speed Gust Speed Precip Events Conditions
12:53 AM 79.0 °F - 54.0 °F 42% 29.87 in 10.0 mi Variable 3.5 mph - N/A   Clear
1:53 AM 73.0 °F - 55.0 °F 53% 29.86 in 10.0 mi West 11.5 mph - N/A   Clear
2:53 AM 70.0 °F - 57.9 °F 65% 29.88 in 10.0 mi WNW 9.2 mph - N/A   Clear
3:53 AM 70.0 °F - 57.9 °F 65% 29.89 in 10.0 mi West 8.1 mph - N/A   Clear
4:53 AM 71.1 °F - 57.0 °F 61% 29.88 in 10.0 mi Calm Calm - N/A   Clear
5:53 AM 71.1 °F - 57.9 °F 63% 29.88 in 10.0 mi WSW 10.4 mph - N/A   Clear
6:53 AM 72.0 °F - 59.0 °F 64% 29.88 in 10.0 mi SW 10.4 mph - N/A   Clear
7:53 AM 73.0 °F - 59.0 °F 61% 29.90 in 10.0 mi SW 11.5 mph - N/A   Clear
8:53 AM 82.0 °F 81.7 °F 57.0 °F 42% 29.90 in 10.0 mi SW 11.5 mph - N/A   Clear
9:53 AM 84.9 °F 83.6 °F 55.0 °F 36% 29.90 in 10.0 mi WSW 3.5 mph - N/A   Clear
10:53 AM 88.0 °F 85.7 °F 53.1 °F 30% 29.87 in 10.0 mi Variable 5.8 mph - N/A   Clear
11:53 AM 91.9 °F 89.5 °F 54.0 °F 27% 29.86 in 10.0 mi SW 4.6 mph - N/A   Clear
12:53 PM 96.1 °F - 52.0 °F 22% 29.82 in 10.0 mi SE 6.9 mph - N/A   Clear
1:53 PM 99.0 °F - 50.0 °F 19% 29.80 in 10.0 mi ESE 8.1 mph - N/A   Clear
2:53 PM 100.9 °F - 50.0 °F 18% 29.77 in 10.0 mi North 8.1 mph - N/A   Clear
3:53 PM 98.1 °F - 48.0 °F 18% 29.78 in 10.0 mi ENE 5.8 mph - N/A   Clear
4:31 PM 91.4 °F - 48.2 °F 23% 30.01 in 10.0 mi SW 25.3 mph 33.4 mph N/A   Clear
4:53 PM 91.9 °F - 46.0 °F 21% 29.78 in 10.0 mi SW 15.0 mph 24.2 mph N/A   Clear
5:53 PM 91.0 °F - 48.0 °F 23% 29.79 in 10.0 mi SE 18.4 mph 29.9 mph N/A   Mostly Cloudy
6:03 PM 91.4 °F - 48.2 °F 23% 30.01 in 10.0 mi SSE 15.0 mph - N/A   Scattered Clouds
6:53 PM 90.0 °F - 51.1 °F 26% 29.79 in 10.0 mi South 13.8 mph - N/A   Clear
7:53 PM 89.1 °F - 50.0 °F 26% 29.80 in 10.0 mi South 13.8 mph - N/A   Clear
8:53 PM 86.0 °F - 51.1 °F 30% 29.82 in 10.0 mi South 11.5 mph - N/A   Clear
9:53 PM 82.9 °F - 52.0 °F 34% 29.83 in 10.0 mi SSW 10.4 mph - N/A   Clear
10:53 PM 78.1 °F - 52.0 °F 40% 29.84 in 10.0 mi SW 5.8 mph - N/A   Clear
11:53 PM 78.1 °F - 52.0 °F 40% 29.84 in 10.0 mi South 5.8 mph - N/A   Clear